Погода Чапаево

Погода Чапаево : погода сейчас, прогноз погоды и архив. Всё, что Вы хотите узнать о погоде Чапаево!

Поиск расширенной информации на нашем сайте:

Другие новости

Новости СМИ2

Главная страница сайта

Новости сайта

03.07.2017

Напоминаем, что на нашем специализированном сайте Метеоцентр.Азия вы можете получить высокодетализированные автоматические прогнозы погоды по пунктам России, СНГ и мира в авиационном формате (включающие направление и скорость ветра, видимость, явления погоды, количество и форму облачности, нижнюю и верхнюю границу облачности).


Погода Чапаево - сегодня

Время (UTC), дата Ветер
(°,м/с) 
Видим.   Явления Облачность Т
(°С)
Тd
(°С)
f(%) Тe
(°С)
Pmin
(гПа)
dP
(гПа)
Po
(мм)
O2
(г/м3)
Тmin Tmax R s Состояние
почвы
18 22.09.18 тихо ()   н/о    ясно 
+11.7 +6.8 72 +12  1022.5  0.5  765  295    +22.6       
21 22.09.18 тихо ()   н/о    ясно 
+10.3 +7 80 +10  1022.4  -0.1  765  296           
00 23.09.18 тихо ()   н/о    ясно 
+7.8 +4.6 80 +8  1022.8  0.3  766  299           
03 23.09.18 тихо ()   20000 м    ясно 
+7.1 +4.8 85 +7  1022.6  -0.2  765  300           
06 23.09.18 тихо ()   20000 м    ясно 
+21.4 +5 34 +21  1022.1  -0.4  765  285  +6.4         
09 23.09.18 тихо ()   20000 м    1/0 верхняя 
[Ci fib]
+24.1 +5.9 31 +24  1021  -1  764  282           
12 23.09.18 тихо ()   20000 м    1/0 верхняя 
[Ci fib]
+25.3 +4.6 26 +25  1019.4  -1.6  763  281           
15 23.09.18 180 (Ю) 20000 м    ясно 
+19.9 +3.2 33 +21  1018.7  -0.7  763  286    +25.8       
18 23.09.18 160 (Ю) н/о    ясно 
+13.5 +2.3 47 +14  1017.8  -1  762  292    +25.8       
21 23.09.18 180 (Ю) н/о    ясно 
+12.6 +0.6 44 +13  1017  -0.8  761  293           
00 24.09.18 180 (Ю) н/о    ясно 
+8.1 +1.3 62 +9  1016.3  -0.7  761  298           
03 24.09.18 170 (Ю) 20000 м    1/0 средняя 
[Ac lent]
+9.6 +5 73 +11  1015.3  -1  760  295           
06 24.09.18 200 (Ю) 20000 м    6/0 верхняя 
[Ci fib]
+20.9 +8 43 +21  1014.5  -0.7  759  283  +7.5         
09 24.09.18 230 (ЮЗ) 20000 м    6/6 600 м кучево-дожд. 
[Cb calv]
+20.7 +9.5 49 +21  1013.4  -1.1  759  282           
12 24.09.18 200 (Ю) 20000 м  в посл. час ливневой дождь  8/8 600 м кучево-дожд. 
[Cb calv]
+14.9 +14.9 100 +23  1013.8  0.3  759  287           
15 24.09.18 270 (З) 20000 м    6/6 600 м кучево-дожд. 
[Cb calv]
+13.4 +11.9 91 +16  1014.6  0.8  759  289    +22.7     
18 24.09.18 200 (Ю) н/о    ясно 
+9.1 +9.1 100 +10  1015.2  0.6  760  295    +22.7     
21 24.09.18 180 (Ю) н/о    ясно 
+8.2 +8.2 100 +9  1015.5  0.3  760  296           
00 25.09.18 180 (Ю) н/о  {ливн. осадки}  8/8 600 м кучево-дожд. 
[Cb calv]
+9.2 +9.2 100 +10  1016.4  0.9  761  295           
03 25.09.18 тихо ()   20000 м    8/8 600 м 
[Sc]
+10.3 +10.3 100 +12  1016.5  0.1  761  294      0.0     
06 25.09.18 180 (Ю) 20000 м    6/0 средняя 
[Ac und]
+15.3 +14.2 93 +23  1016.8  0.3  761  287  +7.8    0.0     
09 25.09.18 200 (Ю) 20000 м    3/3 600 м 
[Cu hum]
+19 +10.3 57 +20  1016.2  -0.5  761  285           
12 25.09.18 200 (Ю) 20000 м    3/3 600 м 
[Cu hum]
+20 +9.3 50 +20  1016  -0.2  761  284           
15 25.09.18 180 (Ю) 20000 м    6/0 средняя 
[Ac und]
+15.8 +10.5 71 +19  1015.9  -0.2  760  288    +20.5       
18 25.09.18 180 (Ю) н/о    6/6 600 м 
[Sc]
+16.2 +11 71 +19  1016.4  0.5  761  287    +20.5       
Время (UTC), дата Ветер
(°,м/с) 
Видим.   Явления Облачность Т
(°С)
Тd
(°С)
f(%) Тe
(°С)
Pmin
(гПа)
dP
(гПа)
Po
(мм)
O2
(г/м3)
Тmin Tmax R s Состояние
почвы

Для получения пояснительной информации подведите курсор к названию столбца.

ПОГОДА Чапаево - архив

Всё, что Вы хотите узнать о погоде Чапаево - удобно и подробно!

Выберите нужную дату (начиная с 1 января 2015* года) и нажмите кнопку "Найти".
Будут отображены архивные сводки погоды по пункту Чапаево, начиная с указанной даты.


Отображать данные в формате CSV (для использования в таблицах Excel)


Внимание! Наш архив погоды предназначен исключительно для личного некоммерческого использования в познавательных целях. Если Вам необходимы официальные справки о состоянии погоды (для производственных, юридических, коммерческих и т.п. целей), обращайтесь в органы Росгидромета.

*Примечание: данная дата относится к архиву по метеостанциям СССР (Россия, СНГ, Балтия).
Архив по метеостанциям Зарубежной Европы и Азии (кроме Китая) хранится 10 дней, по другим регионам земного шара (Китай, Африка, Америка, Австралия, Океания) - 1 день.

Чапаево - район местоположения метеостанции


Название, широта, долгота, высота метеостанции:
Чапаево 50.2°ш. 51.2°д. 17 м над ур. моря [Казахстан]

Дополнительная информация

В oтличие oт бoльшинства пoгoдных сайтoв мы публикуем пoдрoбную метеoинфoрмацию в детальнoм прoфессиoнальнoм фoрмате.

Характеристики температуры и влажнoсти вoздуха измеряются на высoте 2 м в тени вдали oт зданий и деревьев.
Скoрoсть ветра измеряется на высoте 10 м (на урoвне рoста челoвека скoрoсть ветра ниже в 1.5-2 раза). Если метеoстанция нахoдится в гoрoде или в лесу, тo скoрoсть ветра занижена на 2-4 м/с пo сравнению с oткрытым местoм. Скoрoсть ветра над акватoриями крупных рек и oзёр, а также на вершинах хoлмoв на 2-5 м/с выше, чем в oбычных услoвиях.
Атмoсфернoе давление в разных тoчках местнoсти мoжет значительнo oтличаться oт давления на метеoстанции, в зависимoсти oт услoвий рельефа (при пoдъёме на 10 м давление пoнижается примернo на 1 мм рт.ст.).